DECAYED

OBJECT D, 59509 (Decayed)

Orbit data source: Space-Track

You're viewing an Uncataloged Satellite

Recently launched and/or uncataloged satellites may have evolving metadata. Metadata may include but not limited to: Owner, Maufacturer, Bus, Motor, and Mission.

OBJECT D, 59509 was a satellite owned by Avant Space (CIS) in LEO that was launched on Thu, 11 Apr 2024 UTC via an ANGARA A5/ORION launch vehicle from the Vostochny Cosmodrome (VOSTO). Unknown objects in Earth's orbit typically refer to objects detected orbiting the Earth but have not yet been identified or cataloged. These objects could be anything from previously untracked satellites, spent rocket stages, debris from satellite collisions, or even natural meteoroids temporarily captured by Earth's gravity. This object's orbit decayed before it could be identified.

Not visible in the next 10 days
Identifier
59509, 2024-069D
Orbit
Decayed
Country
Flag of CISCIS
Related business
None
Manufacturer
Avant Space
Mission
Decayed spacecraft
Bus & Motor
CUBESAT 3U, Unknown motor
Mass
4 kg wet, 4 kg dry
Launch date (UTC)
2024-04-11 (1 year ago)
Launch vehicle
ANGARA A5/ORION
Launch site
Vostochny Cosmodrome (VOSTO)
Object type
Unknown
Shape & HBR
Unknown
Radar Cross Section
Small (<0.1 m²)

Expand to show TLE details & history
Last TLE update: 1 year ago

TLE from 1 year ago
0 OBJECT D
1 59509U 24069D   24109.37283718  .05373416  10814-4  51767-2 0  9999
2 59509  51.4865 338.0912 0222076 105.5926 257.0155 15.77124220   907
Epoch: 2024-04-18T08:56Z
TLE epoch observation values (Epoch: 2024-04-18T08:56:53.132Z)
Latitude
0.03522°
Longitude
-3.07234°
Altitude
375.957 km
Speed
7.665 km/s
True Right ascension
22h 32m 28s
True Declination
0° 02' 06"
Sunlit
Object was in daylight at epoch
Visualization orbit readout
Latitude
Unknown
Longitude
Unknown
Altitude
Unknown
Speed
Unknown
Apparent Right ascension
Unknown
Apparent Declination
Unknown
Sunlit
N/A
Visualization observer readout
Local Sidereal Time
01:49:49
Azimuth
Unknown
Elevation
Unknown
Doppler factor
Unknown
Orbital elements
Apogee altitude
488.307 km
Perigee altitude
189.959 km
Semi-major axis
6,717.27 km
Eccentricity
0.02221
Inclination
51.4865°
RAAN
338.0912°
Arg. of periapsis
105.5926°
True anomaly
254.5519°
Mean anomaly
257.0155°
Eccentric anomaly
255.78207°
Mean motion
3.94234 °/min
Orbital period
91.32 mins
BSTAR
0.0051767
Loading maneuver chart data...
Computing Atmospheric mass density...
Loading historical data...
Loading historical data...
Loading historical data...
Loading historical data...
Loading historical data...
Loading historical data...
Loading historical data...
Other satellites on launch #69 in the year 2024 (2024-04-11 UTC)

Documentation

Showing up to 5 results
|